This demonstration page uses our WeatherBlox Daily Observations layout. Learn more.

Left ArrowRight Arrow

Hourly Observations for July 29, 2020

Temp ( °F °C ) Dew Point ( °F °C ) Humidity (%) Winds ( mph kmh ) Pressure ( in mb ) Visibility ( mi km ) Precip ( " mm )
12:54 am 00:54 Clear 74 23.3 70 21.1 88 88 S 6 9 29.89 1012 10 16.0934 0 0
1:54 am 01:54 Clear 74 23.3 70 21.1 88 88 Calm 29.89 1012 10 16.0934 0 0
2:54 am 02:54 Clear 74 23.3 70 21.1 88 88 Calm 29.88 1012 10 16.0934 0 0
3:54 am 03:54 Clear 72 22.2 69 20.6 91 91 SSE 5 7 29.88 1012 10 16.0934 0 0
4:54 am 04:54 Clear 73 22.8 69 20.6 87 87 S 3 6 29.88 1012 10 16.0934 0 0
5:54 am 05:54 Mostly Cloudy 73 22.8 70 21.1 90 90 SW 3 6 29.89 1012 10 16.0934 0 0
6:54 am 06:54 Sunny 73 22.8 69 20.6 87 87 Calm 29.88 1012 8 12.87472 0 0
7:54 am 07:54 Cloudy 74 23.3 70 21.1 88 88 S 5 7 29.89 1012 8 12.87472 0 0
8:54 am 08:54 Cloudy with Light Rain 78 25.6 71 21.7 79 79 Calm 29.88 1012 10 16.0934 0.001 0.001
9:54 am 09:54 Mostly Cloudy 78 25.6 71 21.7 79 79 ESE 5 7 29.88 1012 9 14.48406 0.001 0.001
10:54 am 10:54 Cloudy with Light Rain 77 25 73 22.8 88 88 NNE 6 9 29.88 1012 7 11.26538 0.01 0.254
11:15 am 11:15 Cloudy with Light Rain 77 25 73 22.8 88 88 ENE 6 9 29.87 1011 8 12.87472 0.02 0.508
11:54 am 11:54 Cloudy with Light Rain 77 25 73 22.8 88 88 E 6 9 29.89 1012 8 12.87472 0.02 0.508
11:59 am 11:59 Cloudy with Light Rain 77 25 73 22.8 88 88 ENE 5 7 29.88 1012 7 11.26538 0.01 0.254
12:22 pm 12:22 Cloudy with Rain 76 24.4 73 22.8 91 91 ENE 5 7 29.87 1011 6 9.65604 0.05 1.27
12:38 pm 12:38 Cloudy with Rain 76 24.4 73 22.8 91 91 NE 6 9 29.87 1011 4 6.43736 0.08 2.032
12:54 pm 12:54 Cloudy with Rain 76 24.4 73 22.8 91 91 NE 5 7 29.89 1012 5 8.0467 0.13 3.302
1:09 pm 13:09 Cloudy with Rain 76 24.4 73 22.8 91 91 ENE 8 13 29.87 1011 6 9.65604 0.03 0.762
1:20 pm 13:20 Cloudy with Nearby Thunderstorms 77 25 73 22.8 88 88 E 12 19 29.86 1011 6 9.65604 0.04 1.016
1:44 pm 13:44 Cloudy with Light Rain 78 25.6 74 23.3 87 87 E 14 22 29.84 1011 8 12.87472 0.07 1.778
1:54 pm 13:54 Mostly Cloudy with Light Rain 76 24.4 71 21.7 85 85 ESE 12 19 29.87 1011 9 14.48406 0.07 1.778
2:54 pm 14:54 Partly Cloudy 76 24.4 70 21.1 82 82 E 8 13 29.85 1011 10 16.0934 0.001 0.001
3:35 pm 15:35 Mostly Sunny 77 25 70 21.1 79 79 ESE 8 13 29.83 1010 10 16.0934 0 0
3:54 pm 15:54 Partly Cloudy 79 26.1 71 21.7 77 77 ESE 7 11 29.85 1011 10 16.0934 0 0
4:03 pm 16:03 Mostly Cloudy 80 26.7 71 21.7 74 74 ESE 8 13 29.82 1010 10 16.0934 0 0
4:46 pm 16:46 Mostly Cloudy 80 26.7 71 21.7 74 74 SE 10 17 29.81 1009 10 16.0934 0 0
4:54 pm 16:54 Mostly Cloudy 79 26.1 71 21.7 77 77 ESE 14 22 29.84 1011 10 16.0934 0 0
5:12 pm 17:12 Mostly Cloudy 80 26.7 71 21.7 74 74 ESE 13 20 29.8 1009 10 16.0934 0 0
5:29 pm 17:29 Mostly Cloudy 79 26.1 70 21.1 74 74 E 13 20 29.81 1010 10 16.0934 0 0
5:54 pm 17:54 Cloudy 80 26.7 69 20.6 69 69 E 10 17 29.83 1010 10 16.0934 0 0
6:54 pm 18:54 Mostly Cloudy 78 25.6 65 18.3 64 64 ESE 7 11 29.81 1009 10 16.0934 0 0
7:54 pm 19:54 Sunny 77 25 66 18.9 69 69 ESE 8 13 29.82 1010 10 16.0934 0 0
8:54 pm 20:54 Cloudy 74 23.3 66 18.9 76 76 NE 10 17 29.85 1011 10 16.0934 0 0
9:54 pm 21:54 Mostly Cloudy 74 23.3 67 19.4 79 79 NE 7 11 29.87 1012 10 16.0934 0 0
10:54 pm 22:54 Clear 72 22.2 67 19.4 84 84 N 7 11 29.88 1012 10 16.0934 0 0
11:54 pm 23:54 Clear 72 22.2 68 20 87 87 NNE 8 13 29.86 1011 10 16.0934 0 0

Powered by AerisWeather